When you browse on this site, cookies collect data to enhance your experience and personalize the content and advertising you see.
Visit our Privacy Policy to learn more. By continuing to use the site, you agree to this use of cookies and data.
  • In Österreich
  • Länderverzeichnis
  • Für 7 Tage
  • Wassertemperatur
  • Satellitenkarten
  • Wetterkarte
  • News
  • Widgets
  • user-avatar
    Anmelden

    Stündliche Wetter Stoughton

    Heute, 17 Februar, Sonntag

    Zeit Temperatur Niederschläge Wind Luftdruck Luftfeuchtigkeit
    00:00 -5°C° 0 mm 4 m/S 756 mmHg 61%
    01:00 -7°C° 0 mm 4 m/S 756 mmHg 57%
    02:00 -6°C° 0 mm 3 m/S 757 mmHg 56%
    03:00 -6°C° 0 mm 3 m/S 757 mmHg 56%
    04:00 -6°C° 0 mm 3 m/S 757 mmHg 55%
    05:00 -6°C° 0 mm 3 m/S 757 mmHg 54%
    06:00 -6°C° 0 mm 3 m/S 758 mmHg 53%
    07:00 -6°C° 0 mm 3 m/S 758 mmHg 51%
    08:00 -4°C° 0 mm 2 m/S 759 mmHg 46%
    09:00 -3°C° 0 mm 2 m/S 759 mmHg 40%
    10:00 -2°C° 0 mm 2 m/S 759 mmHg 35%
    11:00 -1°C° 0 mm 2 m/S 759 mmHg 32%
    12:00 +1°C° 0 mm 2 m/S 759 mmHg 29%
    13:00 +3°C° 0 mm 1 m/S 759 mmHg 26%
    14:00 +3°C° 0 mm 1 m/S 759 mmHg 28%
    15:00 +3°C° 0 mm 1 m/S 759 mmHg 29%
    16:00 +3°C° 0 mm 1 m/S 759 mmHg 30%
    17:00 +2°C° 0 mm 1 m/S 758 mmHg 37%
    18:00 0°C° 0 mm 1 m/S 758 mmHg 44%
    19:00 -3°C° 0 mm 2 m/S 758 mmHg 51%
    20:00 -3°C° 0 mm 2 m/S 758 mmHg 54%
    21:00 -3°C° 0 mm 2 m/S 758 mmHg 57%
    22:00 -3°C° 0 mm 2 m/S 758 mmHg 59%
    23:00 -3°C° 0.2 mm 2 m/S 758 mmHg 68%

    Morgen, 18 Februar, Montag

    Zeit Temperatur Niederschläge Wind Luftdruck Luftfeuchtigkeit
    00:00 -3°C° 0.2 mm 2 m/S 757 mmHg 76%
    01:00 -1°C° 0.2 mm 1 m/S 757 mmHg 85%
    02:00 -1°C° 0.2 mm 1 m/S 757 mmHg 86%
    03:00 -1°C° 0.2 mm 1 m/S 756 mmHg 87%
    04:00 -1°C° 0.2 mm 1 m/S 755 mmHg 88%
    05:00 -3°C° 0.6 mm 2 m/S 755 mmHg 90%
    06:00 -3°C° 0.6 mm 2 m/S 754 mmHg 92%
    07:00 -2°C° 0.6 mm 2 m/S 754 mmHg 94%
    08:00 -2°C° 0.9 mm 3 m/S 753 mmHg 93%
    09:00 -1°C° 0.9 mm 3 m/S 753 mmHg 93%
    10:00 -1°C° 0.9 mm 3 m/S 753 mmHg 92%
    11:00 -1°C° 0.5 mm 3 m/S 752 mmHg 92%
    12:00 -1°C° 0.5 mm 3 m/S 752 mmHg 91%
    13:00 0°C° 0.5 mm 3 m/S 751 mmHg 91%
    14:00 -1°C° 0.4 mm 3 m/S 752 mmHg 91%
    15:00 -1°C° 0.4 mm 3 m/S 752 mmHg 91%
    16:00 -1°C° 0.4 mm 3 m/S 752 mmHg 91%
    17:00 -2°C° 0.3 mm 3 m/S 753 mmHg 91%
    18:00 -2°C° 0.3 mm 3 m/S 754 mmHg 91%
    19:00 -4°C° 0.3 mm 3 m/S 755 mmHg 92%
    20:00 -4°C° 0.1 mm 3 m/S 756 mmHg 91%
    21:00 -5°C° 0.1 mm 3 m/S 757 mmHg 91%
    22:00 -5°C° 0.1 mm 3 m/S 758 mmHg 91%
    23:00 -6°C° 0 mm 3 m/S 759 mmHg 83%

    übermorgen, 19 Februar, Dienstag

    Zeit Temperatur Niederschläge Wind Luftdruck Luftfeuchtigkeit
    00:00 -9°C° 0 mm 4 m/S 760 mmHg 75%
    01:00 -10°C° 0 mm 4 m/S 761 mmHg 67%
    02:00 -10°C° 0 mm 4 m/S 761 mmHg 68%
    03:00 -11°C° 0 mm 4 m/S 762 mmHg 69%
    04:00 -11°C° 0 mm 4 m/S 763 mmHg 71%
    05:00 -11°C° 0 mm 4 m/S 763 mmHg 71%
    06:00 -12°C° 0 mm 3 m/S 764 mmHg 72%
    07:00 -12°C° 0 mm 3 m/S 765 mmHg 73%
    08:00 -10°C° 0 mm 3 m/S 766 mmHg 67%
    09:00 -8°C° 0 mm 3 m/S 766 mmHg 62%
    10:00 -8°C° 0 mm 4 m/S 767 mmHg 57%
    11:00 -6°C° 0 mm 3 m/S 767 mmHg 55%
    12:00 -5°C° 0 mm 3 m/S 767 mmHg 53%
    13:00 -4°C° 0 mm 3 m/S 767 mmHg 51%
    14:00 -4°C° 0 mm 3 m/S 767 mmHg 52%
    15:00 -4°C° 0 mm 3 m/S 767 mmHg 53%
    16:00 -2°C° 0 mm 3 m/S 767 mmHg 53%
    17:00 -4°C° 0 mm 2 m/S 767 mmHg 60%
    18:00 -5°C° 0 mm 2 m/S 768 mmHg 67%
    19:00 -6°C° 0 mm 2 m/S 768 mmHg 74%
    20:00 -7°C° 0 mm 2 m/S 769 mmHg 75%
    21:00 -7°C° 0 mm 2 m/S 769 mmHg 76%
    22:00 -7°C° 0 mm 2 m/S 769 mmHg 76%
    23:00 -8°C° 0 mm 2 m/S 769 mmHg 76%

    20 Februar, Mittwoch

    Zeit Temperatur Niederschläge Wind Luftdruck Luftfeuchtigkeit
    00:00 -8°C° 0 mm 2 m/S 769 mmHg 75%
    01:00 -8°C° 0 mm 2 m/S 769 mmHg 75%
    02:00 -8°C° 0 mm 2 m/S 769 mmHg 75%
    03:00 -9°C° 0 mm 2 m/S 769 mmHg 75%
    04:00 -9°C° 0 mm 2 m/S 769 mmHg 75%
    05:00 -8°C° 0 mm 1 m/S 770 mmHg 74%
    06:00 -8°C° 0 mm 1 m/S 770 mmHg 74%
    07:00 -8°C° 0 mm 1 m/S 771 mmHg 74%
    08:00 -7°C° 0 mm 1 m/S 770 mmHg 68%
    09:00 -6°C° 0 mm 1 m/S 770 mmHg 61%
    10:00 -3°C° 0 mm 1 m/S 770 mmHg 55%
    11:00 -3°C° 0 mm 1 m/S 769 mmHg 55%
    12:00 -3°C° 0 mm 1 m/S 769 mmHg 54%
    13:00 -2°C° 0 mm 1 m/S 768 mmHg 54%
    14:00 -3°C° 0.1 mm 1 m/S 768 mmHg 60%
    15:00 -3°C° 0.1 mm 1 m/S 768 mmHg 67%
    16:00 -3°C° 0.1 mm 1 m/S 767 mmHg 73%
    17:00 -4°C° 0.2 mm 1 m/S 767 mmHg 77%
    18:00 -6°C° 0.2 mm 2 m/S 766 mmHg 82%
    19:00 -6°C° 0.2 mm 2 m/S 766 mmHg 86%
    20:00 -6°C° 0.3 mm 2 m/S 765 mmHg 87%
    21:00 -7°C° 0.3 mm 3 m/S 764 mmHg 88%
    22:00 -7°C° 0.3 mm 3 m/S 763 mmHg 89%
    23:00 -6°C° 0.2 mm 3 m/S 762 mmHg 90%

    21 Februar, Donnerstag

    Zeit Temperatur Niederschläge Wind Luftdruck Luftfeuchtigkeit
    00:00 -5°C° 0.2 mm 3 m/S 761 mmHg 91%
    01:00 -4°C° 0.2 mm 3 m/S 759 mmHg 92%
    02:00 -2°C° 0.6 mm 2 m/S 758 mmHg 93%
    03:00 -2°C° 0.6 mm 2 m/S 757 mmHg 95%
    04:00 +1°C° 0.6 mm 1 m/S 755 mmHg 97%
    05:00 +1°C° 1 mm 1 m/S 755 mmHg 97%
    06:00 -1°C° 1 mm 2 m/S 754 mmHg 97%
    07:00 -1°C° 1 mm 2 m/S 753 mmHg 97%
    08:00 -1°C° 0 mm 2 m/S 753 mmHg 96%
    09:00 +1°C° 0 mm 2 m/S 753 mmHg 95%
    10:00 +2°C° 0 mm 2 m/S 753 mmHg 93%
    11:00 +3°C° 0 mm 2 m/S 753 mmHg 90%
    12:00 +3°C° 0 mm 3 m/S 753 mmHg 87%
    13:00 +4°C° 0 mm 3 m/S 754 mmHg 83%
    14:00 +4°C° 0 mm 4 m/S 754 mmHg 82%
    15:00 +4°C° 0 mm 4 m/S 755 mmHg 80%
    16:00 +4°C° 0 mm 4 m/S 756 mmHg 78%
    17:00 +1°C° 0 mm 4 m/S 757 mmHg 79%
    18:00 -1°C° 0 mm 4 m/S 758 mmHg 80%
    19:00 -2°C° 0 mm 4 m/S 759 mmHg 80%
    20:00 -2°C° 0 mm 3 m/S 760 mmHg 80%
    21:00 -4°C° 0 mm 3 m/S 761 mmHg 80%
    22:00 -4°C° 0 mm 3 m/S 762 mmHg 81%
    23:00 -4°C° 0 mm 3 m/S 762 mmHg 81%

    22 Februar, Freitag

    Zeit Temperatur Niederschläge Wind Luftdruck Luftfeuchtigkeit
    00:00 -3°C° 0 mm 2 m/S 763 mmHg 82%
    01:00 -3°C° 0 mm 2 m/S 763 mmHg 83%
    02:00 -3°C° 0 mm 2 m/S 763 mmHg 83%
    03:00 -4°C° 0 mm 2 m/S 764 mmHg 84%
    04:00 -4°C° 0 mm 2 m/S 764 mmHg 84%
    05:00 -2°C° 0 mm 1 m/S 765 mmHg 84%
    06:00 -2°C° 0 mm 1 m/S 765 mmHg 83%
    07:00 -2°C° 0 mm 1 m/S 765 mmHg 82%
    08:00 -1°C° 0 mm 1 m/S 766 mmHg 77%
    09:00 +1°C° 0 mm 1 m/S 766 mmHg 71%
    10:00 +3°C° 0 mm 1 m/S 766 mmHg 65%
    11:00 +3°C° 0 mm 1 m/S 766 mmHg 61%
    12:00 +4°C° 0 mm 1 m/S 765 mmHg 58%
    13:00 +5°C° 0 mm 1 m/S 765 mmHg 54%
    14:00 +5°C° 0 mm 1 m/S 765 mmHg 58%
    15:00 +5°C° 0 mm 1 m/S 765 mmHg 61%
    16:00 +5°C° 0 mm 1 m/S 764 mmHg 65%
    17:00 +3°C° 0 mm 1 m/S 765 mmHg 72%
    18:00 +2°C° 0 mm 1 m/S 765 mmHg 79%
    19:00 0°C° 0 mm 1 m/S 765 mmHg 86%
    20:00 0°C° 0 mm 1 m/S 765 mmHg 87%
    21:00 0°C° 0 mm 1 m/S 765 mmHg 89%
    22:00 -1°C° 0 mm 1 m/S 766 mmHg 90%
    23:00 -1°C° 0 mm 1 m/S 765 mmHg 91%
    Mehr zeigen